Time,TemperatureF,DewpointF,PressureIn,WindDirection,WindDirectionDegrees,WindSpeedMPH,WindSpeedGustMPH,Humidity,HourlyPrecipIn,Conditions,Clouds,dailyrainin,SoftwareType,DateUTC
2013-04-10 00:00:00,16.5,9.1,30.50,SW,225,2.0,4.0,72,0.00,,,0.01,meteohub,2013-04-10 06:00:00,
2013-04-10 00:05:00,16.5,9.1,30.50,SW,225,2.0,2.0,72,0.00,,,0.00,meteohub,2013-04-10 06:05:00,
2013-04-10 00:10:00,16.7,9.3,30.50,South,180,2.0,2.0,72,0.00,,,0.00,meteohub,2013-04-10 06:10:00,
2013-04-10 00:15:00,16.5,9.1,30.50,East,90,3.0,3.0,72,0.00,,,0.00,meteohub,2013-04-10 06:15:00,
2013-04-10 00:20:00,16.7,9.3,30.50,SE,135,0.0,3.0,72,0.00,,,0.00,meteohub,2013-04-10 06:20:00,
2013-04-10 00:26:00,16.7,9.3,30.50,SE,135,2.0,3.0,72,0.00,,,0.00,meteohub,2013-04-10 06:26:00,
2013-04-10 00:31:00,16.7,9.0,30.50,SW,225,1.0,3.0,71,0.00,,,0.00,meteohub,2013-04-10 06:31:00,
2013-04-10 00:36:00,16.5,8.8,30.50,SW,225,2.0,2.0,71,0.00,,,0.00,meteohub,2013-04-10 06:36:00,
2013-04-10 00:41:00,16.5,8.8,30.50,SW,225,2.0,2.0,71,0.00,,,0.00,meteohub,2013-04-10 06:41:00,
2013-04-10 00:46:00,16.5,8.4,30.50,East,90,3.0,3.0,70,0.00,,,0.00,meteohub,2013-04-10 06:46:00,
2013-04-10 00:51:00,16.5,8.4,30.50,East,90,5.0,5.0,70,0.00,,,0.00,meteohub,2013-04-10 06:51:00,
2013-04-10 00:56:00,16.5,8.4,30.50,SW,225,4.0,5.0,70,0.00,,,0.00,meteohub,2013-04-10 06:56:00,
2013-04-10 01:02:00,16.5,8.1,30.50,East,90,3.0,5.0,69,0.00,,,0.00,meteohub,2013-04-10 07:02:00,
2013-04-10 01:07:00,16.5,8.1,30.51,South,180,4.0,5.0,69,0.00,,,0.00,meteohub,2013-04-10 07:07:00,
2013-04-10 01:13:00,16.5,8.1,30.51,East,90,2.0,4.0,69,0.00,,,0.00,meteohub,2013-04-10 07:13:00,
2013-04-10 01:18:00,16.5,8.1,30.51,SE,135,3.0,4.0,69,0.00,,,0.00,meteohub,2013-04-10 07:18:00,
2013-04-10 01:23:00,16.5,7.9,30.51,East,90,2.0,4.0,68,0.00,,,0.00,meteohub,2013-04-10 07:23:00,
2013-04-10 01:28:00,16.5,7.9,30.51,East,90,4.0,4.0,68,0.00,,,0.00,meteohub,2013-04-10 07:28:00,
2013-04-10 01:33:00,16.5,7.5,30.50,SE,135,2.0,3.0,67,0.00,,,0.00,meteohub,2013-04-10 07:33:00,
2013-04-10 01:38:00,16.5,7.9,30.50,South,180,2.0,4.0,68,0.00,,,0.00,meteohub,2013-04-10 07:38:00,
2013-04-10 01:44:00,16.3,7.7,30.50,South,180,1.0,4.0,68,0.00,,,0.00,meteohub,2013-04-10 07:44:00,
2013-04-10 01:49:00,16.5,7.9,30.50,SW,225,2.0,4.0,68,0.00,,,0.00,meteohub,2013-04-10 07:49:00,
2013-04-10 01:54:00,16.5,8.1,30.50,South,180,3.0,3.0,69,0.00,,,0.00,meteohub,2013-04-10 07:54:00,
2013-04-10 02:00:00,16.5,7.9,30.49,South,180,2.0,4.0,68,0.00,,,0.00,meteohub,2013-04-10 08:00:00,
2013-04-10 02:05:00,16.5,7.9,30.50,South,180,2.0,4.0,68,0.00,,,0.00,meteohub,2013-04-10 08:05:00,
2013-04-10 02:10:00,16.5,7.9,30.49,South,180,3.0,4.0,68,0.00,,,0.00,meteohub,2013-04-10 08:10:00,
2013-04-10 02:15:00,16.5,7.9,30.49,SW,225,1.0,3.0,68,0.00,,,0.00,meteohub,2013-04-10 08:15:00,
2013-04-10 02:20:00,16.7,8.1,30.49,SSE,158,4.0,4.0,68,0.00,,,0.00,meteohub,2013-04-10 08:20:00,
2013-04-10 02:25:00,16.7,8.1,30.49,South,180,3.0,4.0,68,0.00,,,0.00,meteohub,2013-04-10 08:25:00,
2013-04-10 02:31:00,16.7,8.1,30.49,South,180,3.0,4.0,68,0.00,,,0.00,meteohub,2013-04-10 08:31:00,
2013-04-10 02:36:00,16.7,8.1,30.49,East,90,5.0,5.0,68,0.00,,,0.00,meteohub,2013-04-10 08:36:00,
2013-04-10 02:41:00,16.7,7.7,30.49,South,180,2.0,5.0,67,0.00,,,0.00,meteohub,2013-04-10 08:41:00,
2013-04-10 02:47:00,16.5,7.5,30.49,SE,135,3.0,5.0,67,0.00,,,0.00,meteohub,2013-04-10 08:47:00,
2013-04-10 02:52:00,16.3,7.3,30.48,SE,135,2.0,5.0,67,0.00,,,0.00,meteohub,2013-04-10 08:52:00,
2013-04-10 02:57:00,16.5,7.5,30.49,West,270,3.0,4.0,67,0.00,,,0.00,meteohub,2013-04-10 08:57:00,
2013-04-10 03:02:00,16.3,7.3,30.49,South,180,4.0,4.0,67,0.00,,,0.00,meteohub,2013-04-10 09:02:00,
2013-04-10 03:07:00,16.3,7.3,30.48,SW,225,3.0,4.0,67,0.00,,,0.00,meteohub,2013-04-10 09:07:00,
2013-04-10 03:12:00,16.3,7.3,30.49,SW,225,4.0,4.0,67,0.00,,,0.00,meteohub,2013-04-10 09:12:00,
2013-04-10 03:17:00,16.2,7.2,30.49,South,180,5.0,5.0,67,0.00,,,0.00,meteohub,2013-04-10 09:17:00,
2013-04-10 03:23:00,16.0,7.0,30.49,South,180,5.0,6.0,67,0.00,,,0.00,meteohub,2013-04-10 09:23:00,
2013-04-10 03:28:00,15.8,6.4,30.49,SW,225,4.0,6.0,66,0.00,,,0.00,meteohub,2013-04-10 09:28:00,
2013-04-10 03:33:00,15.6,6.6,30.49,South,180,5.0,6.0,67,0.00,,,0.00,meteohub,2013-04-10 09:33:00,
2013-04-10 03:38:00,15.4,6.4,30.49,NW,315,6.0,6.0,67,0.00,,,0.00,meteohub,2013-04-10 09:38:00,
2013-04-10 03:43:00,15.3,5.9,30.50,SW,225,5.0,7.0,66,0.00,,,0.00,meteohub,2013-04-10 09:43:00,
2013-04-10 03:49:00,15.1,5.7,30.50,SW,225,4.0,7.0,66,0.00,,,0.00,meteohub,2013-04-10 09:49:00,
2013-04-10 03:54:00,14.9,5.5,30.50,SW,225,5.0,7.0,66,0.00,,,0.00,meteohub,2013-04-10 09:54:00,
2013-04-10 03:59:00,14.7,5.2,30.50,SW,225,4.0,6.0,65,0.00,,,0.00,meteohub,2013-04-10 09:59:00,
2013-04-10 04:04:00,14.7,5.2,30.50,SW,225,4.0,6.0,65,0.00,,,0.00,meteohub,2013-04-10 10:04:00,
2013-04-10 04:09:00,14.5,5.0,30.50,SW,225,4.0,5.0,65,0.00,,,0.00,meteohub,2013-04-10 10:09:00,
2013-04-10 04:14:00,14.4,4.8,30.51,SW,225,4.0,7.0,65,0.00,,,0.00,meteohub,2013-04-10 10:14:00,
2013-04-10 04:19:00,14.4,4.8,30.50,SW,225,4.0,7.0,65,0.00,,,0.00,meteohub,2013-04-10 10:19:00,
2013-04-10 04:25:00,14.4,4.8,30.50,SW,225,4.0,7.0,65,0.00,,,0.00,meteohub,2013-04-10 10:25:00,
2013-04-10 04:30:00,14.2,4.6,30.51,SW,225,3.0,5.0,65,0.00,,,0.00,meteohub,2013-04-10 10:30:00,
2013-04-10 04:35:00,14.2,4.6,30.51,SW,225,4.0,5.0,65,0.00,,,0.00,meteohub,2013-04-10 10:35:00,
2013-04-10 04:40:00,14.2,5.0,30.51,South,180,4.0,7.0,66,0.00,,,0.00,meteohub,2013-04-10 10:40:00,
2013-04-10 04:45:00,14.2,5.0,30.51,SW,225,4.0,4.0,66,0.00,,,0.00,meteohub,2013-04-10 10:45:00,
2013-04-10 04:51:00,14.0,4.5,30.51,SW,225,5.0,5.0,65,0.00,,,0.00,meteohub,2013-04-10 10:51:00,
2013-04-10 04:57:00,14.0,4.5,30.51,SSW,203,4.0,6.0,65,0.00,,,0.00,meteohub,2013-04-10 10:57:00,
2013-04-10 05:02:00,14.0,4.5,30.52,South,180,4.0,6.0,65,0.00,,,0.00,meteohub,2013-04-10 11:02:00,
2013-04-10 05:07:00,13.8,4.8,30.51,South,180,4.0,6.0,67,0.00,,,0.00,meteohub,2013-04-10 11:07:00,
2013-04-10 05:12:00,13.8,4.8,30.51,SW,225,4.0,6.0,67,0.00,,,0.00,meteohub,2013-04-10 11:12:00,
2013-04-10 05:17:00,13.6,4.6,30.51,South,180,4.0,6.0,67,0.00,,,0.00,meteohub,2013-04-10 11:17:00,
2013-04-10 05:22:00,13.5,4.6,30.51,SE,135,6.0,6.0,67,0.00,,,0.00,meteohub,2013-04-10 11:22:00,
2013-04-10 05:27:00,13.5,4.6,30.52,SW,225,4.0,6.0,67,0.00,,,0.00,meteohub,2013-04-10 11:27:00,
2013-04-10 05:32:00,13.3,4.5,30.52,SW,225,2.0,6.0,67,0.00,,,0.00,meteohub,2013-04-10 11:32:00,
2013-04-10 05:38:00,13.3,4.5,30.52,SW,225,3.0,6.0,67,0.00,,,0.00,meteohub,2013-04-10 11:38:00,
2013-04-10 05:43:00,13.3,4.6,30.52,SW,225,3.0,4.0,68,0.00,,,0.00,meteohub,2013-04-10 11:43:00,
2013-04-10 05:48:00,13.1,4.3,30.52,SW,225,2.0,4.0,67,0.00,,,0.00,meteohub,2013-04-10 11:48:00,
2013-04-10 05:53:00,13.1,4.3,30.52,SW,225,2.0,3.0,67,0.00,,,0.00,meteohub,2013-04-10 11:53:00,
2013-04-10 05:58:00,13.1,4.5,30.52,South,180,2.0,3.0,68,0.00,,,0.00,meteohub,2013-04-10 11:58:00,
2013-04-10 06:04:00,12.9,4.3,30.51,South,180,2.0,3.0,68,0.00,,,0.00,meteohub,2013-04-10 12:04:00,
2013-04-10 06:09:00,12.9,4.3,30.51,South,180,2.0,3.0,68,0.00,,,0.00,meteohub,2013-04-10 12:09:00,
2013-04-10 06:14:00,12.7,4.1,30.51,SW,225,2.0,3.0,68,0.00,,,0.00,meteohub,2013-04-10 12:14:00,
2013-04-10 06:20:00,12.6,4.1,30.51,SW,225,2.0,2.0,68,0.00,,,0.00,meteohub,2013-04-10 12:20:00,
2013-04-10 06:25:00,12.4,4.1,30.51,South,180,2.0,2.0,69,0.00,,,0.00,meteohub,2013-04-10 12:25:00,
2013-04-10 06:31:00,12.2,3.9,30.51,South,180,2.0,2.0,69,0.00,,,0.00,meteohub,2013-04-10 12:31:00,
2013-04-10 06:36:00,11.8,3.9,30.51,South,180,2.0,2.0,70,0.00,,,0.00,meteohub,2013-04-10 12:36:00,
2013-04-10 06:41:00,11.5,3.6,30.51,SW,225,2.0,2.0,70,0.00,,,0.00,meteohub,2013-04-10 12:41:00,
2013-04-10 06:46:00,11.1,3.2,30.51,SW,225,2.0,2.0,70,0.00,,,0.00,meteohub,2013-04-10 12:46:00,
2013-04-10 06:51:00,10.9,3.0,30.52,SW,225,1.0,2.0,70,0.00,,,0.00,meteohub,2013-04-10 12:51:00,
2013-04-10 06:56:00,10.6,2.7,30.51,SW,225,2.0,2.0,70,0.00,,,0.00,meteohub,2013-04-10 12:56:00,
2013-04-10 07:01:00,9.9,0.5,30.51,SW,225,2.0,2.0,65,0.00,,,0.00,meteohub,2013-04-10 13:01:00,
2013-04-10 07:07:00,9.3,0.0,30.51,SW,225,2.0,2.0,65,0.00,,,0.00,meteohub,2013-04-10 13:07:00,
2013-04-10 07:12:00,9.0,-0.4,30.52,SW,225,2.0,3.0,65,0.00,,,0.00,meteohub,2013-04-10 13:12:00,
2013-04-10 07:17:00,9.3,0.0,30.52,NW,315,1.0,3.0,65,0.00,,,0.00,meteohub,2013-04-10 13:17:00,
2013-04-10 07:22:00,9.1,-0.2,30.52,East,90,1.0,3.0,65,0.00,,,0.00,meteohub,2013-04-10 13:22:00,
2013-04-10 07:27:00,9.0,-0.4,30.52,South,180,1.0,3.0,65,0.00,,,0.00,meteohub,2013-04-10 13:27:00,
2013-04-10 07:32:00,9.0,-0.4,30.52,SW,225,2.0,2.0,65,0.00,,,0.00,meteohub,2013-04-10 13:32:00,
2013-04-10 07:38:00,9.0,-0.4,30.52,SW,225,2.0,2.0,65,0.00,,,0.00,meteohub,2013-04-10 13:38:00,
2013-04-10 07:43:00,9.3,0.0,30.52,SW,225,0.0,2.0,65,0.00,,,0.00,meteohub,2013-04-10 13:43:00,
2013-04-10 07:48:00,9.5,0.1,30.52,SW,225,0.0,2.0,65,0.00,,,0.00,meteohub,2013-04-10 13:48:00,
2013-04-10 07:53:00,9.9,0.5,30.52,NE,45,1.0,2.0,65,0.00,,,0.00,meteohub,2013-04-10 13:53:00,
2013-04-10 07:59:00,9.9,0.5,30.52,NE,45,0.0,2.0,65,0.00,,,0.00,meteohub,2013-04-10 13:59:00,
2013-04-10 08:04:00,9.9,0.5,30.52,NE,45,0.0,2.0,65,0.00,,,0.00,meteohub,2013-04-10 14:04:00,
2013-04-10 08:09:00,10.4,2.3,30.53,SW,225,0.0,2.0,69,0.00,,,0.00,meteohub,2013-04-10 14:09:00,
2013-04-10 08:14:00,10.9,3.0,30.52,SW,225,0.0,0.0,70,0.00,,,0.00,meteohub,2013-04-10 14:14:00,
2013-04-10 08:19:00,12.2,3.9,30.52,East,90,2.0,2.0,69,0.00,,,0.00,meteohub,2013-04-10 14:19:00,
2013-04-10 08:24:00,13.3,5.4,30.52,SW,225,2.0,2.0,70,0.00,,,0.00,meteohub,2013-04-10 14:24:00,
2013-04-10 08:30:00,14.7,6.1,30.53,South,180,3.0,3.0,68,0.00,,,0.00,meteohub,2013-04-10 14:30:00,
2013-04-10 08:35:00,16.5,7.2,30.53,NE,45,2.0,8.0,66,0.00,,,0.00,meteohub,2013-04-10 14:35:00,
2013-04-10 08:40:00,18.1,7.7,30.53,South,180,2.0,8.0,63,0.00,,,0.00,meteohub,2013-04-10 14:40:00,
2013-04-10 08:45:00,19.4,9.9,30.52,SW,225,3.0,8.0,66,0.00,,,0.00,meteohub,2013-04-10 14:45:00,
2013-04-10 08:50:00,20.1,9.5,30.52,WNW,293,5.0,5.0,63,0.00,,,0.00,meteohub,2013-04-10 14:50:00,
2013-04-10 08:56:00,20.8,8.8,30.52,SE,135,4.0,8.0,59,0.00,,,0.00,meteohub,2013-04-10 14:56:00,
2013-04-10 09:01:00,21.7,8.8,30.52,NW,315,3.0,8.0,57,0.00,,,0.00,meteohub,2013-04-10 15:01:00,
2013-04-10 09:06:00,23.2,9.3,30.52,North,0,2.0,8.0,55,0.00,,,0.00,meteohub,2013-04-10 15:06:00,
2013-04-10 09:11:00,24.1,9.9,30.52,SW,225,2.0,4.0,54,0.00,,,0.00,meteohub,2013-04-10 15:11:00,
2013-04-10 09:16:00,23.4,7.0,30.52,North,0,6.0,7.0,49,0.00,,,0.00,meteohub,2013-04-10 15:16:00,
2013-04-10 09:22:00,22.5,6.3,30.52,NE,45,7.0,7.0,49,0.00,,,0.00,meteohub,2013-04-10 15:22:00,
2013-04-10 09:27:00,21.9,6.1,30.52,NE,45,4.0,8.0,50,0.00,,,0.00,meteohub,2013-04-10 15:27:00,
2013-04-10 09:32:00,22.6,7.2,30.52,SW,225,2.0,8.0,51,0.00,,,0.00,meteohub,2013-04-10 15:32:00,
2013-04-10 09:37:00,24.1,8.6,30.52,North,0,3.0,8.0,51,0.00,,,0.00,meteohub,2013-04-10 15:37:00,
2013-04-10 09:42:00,24.8,8.4,30.52,East,90,3.0,6.0,49,0.00,,,0.00,meteohub,2013-04-10 15:42:00,
2013-04-10 09:47:00,24.8,7.9,30.51,East,90,3.0,4.0,48,0.01,,,0.01,meteohub,2013-04-10 15:47:00,
2013-04-10 09:52:00,24.8,7.3,30.52,SE,135,3.0,4.0,47,0.01,,,0.01,meteohub,2013-04-10 15:52:00,
2013-04-10 09:57:00,26.2,9.1,30.51,WNW,293,4.0,4.0,48,0.01,,,0.01,meteohub,2013-04-10 15:57:00,
2013-04-10 10:02:00,26.8,9.7,30.51,South,180,2.0,4.0,48,0.01,,,0.01,meteohub,2013-04-10 16:02:00,
2013-04-10 10:08:00,28.4,13.5,30.51,SW,225,2.0,4.0,53,0.01,,,0.01,meteohub,2013-04-10 16:08:00,
2013-04-10 10:13:00,29.3,14.7,30.51,South,180,2.0,4.0,54,0.01,,,0.01,meteohub,2013-04-10 16:13:00,
2013-04-10 10:18:00,29.8,13.5,30.51,East,90,2.0,3.0,50,0.01,,,0.01,meteohub,2013-04-10 16:18:00,
2013-04-10 10:23:00,30.4,13.5,30.51,SE,135,2.0,3.0,49,0.01,,,0.01,meteohub,2013-04-10 16:23:00,
2013-04-10 10:29:00,30.4,13.1,30.50,East,90,3.0,3.0,48,0.01,,,0.01,meteohub,2013-04-10 16:29:00,
2013-04-10 10:34:00,29.7,12.4,30.51,NE,45,4.0,4.0,48,0.02,,,0.02,meteohub,2013-04-10 16:34:00,
2013-04-10 10:39:00,27.7,8.1,30.51,East,90,3.0,4.0,43,0.04,,,0.04,meteohub,2013-04-10 16:39:00,
2013-04-10 10:44:00,27.9,8.8,30.51,SE,135,1.0,6.0,44,0.04,,,0.05,meteohub,2013-04-10 16:44:00,
2013-04-10 10:49:00,29.5,12.7,30.50,East,90,2.0,6.0,49,0.04,,,0.05,meteohub,2013-04-10 16:49:00,
2013-04-10 10:54:00,30.4,13.1,30.50,SW,225,3.0,6.0,48,0.05,,,0.06,meteohub,2013-04-10 16:54:00,
2013-04-10 11:00:00,30.6,13.3,30.50,NE,45,5.0,5.0,48,0.05,,,0.06,meteohub,2013-04-10 17:00:00,
2013-04-10 11:05:00,29.1,12.7,30.50,NE,45,4.0,5.0,50,0.05,,,0.07,meteohub,2013-04-10 17:05:00,
2013-04-10 11:10:00,28.8,12.4,30.50,NE,45,5.0,8.0,50,0.07,,,0.08,meteohub,2013-04-10 17:10:00,
2013-04-10 11:15:00,28.0,9.5,30.49,North,0,3.0,8.0,45,0.07,,,0.08,meteohub,2013-04-10 17:15:00,
2013-04-10 11:20:00,28.6,12.4,30.49,NW,315,4.0,8.0,50,0.08,,,0.09,meteohub,2013-04-10 17:20:00,
2013-04-10 11:25:00,29.5,13.6,30.49,SE,135,4.0,8.0,51,0.08,,,0.09,meteohub,2013-04-10 17:25:00,
2013-04-10 11:31:00,30.6,13.3,30.48,NW,315,2.0,8.0,48,0.07,,,0.11,meteohub,2013-04-10 17:31:00,
2013-04-10 11:37:00,31.3,13.5,30.48,East,90,3.0,8.0,47,0.08,,,0.12,meteohub,2013-04-10 17:37:00,
2013-04-10 11:42:00,32.0,15.1,30.48,SSW,203,3.0,5.0,49,0.07,,,0.12,meteohub,2013-04-10 17:42:00,
2013-04-10 11:47:00,33.4,16.3,30.48,South,180,4.0,5.0,49,0.08,,,0.13,meteohub,2013-04-10 17:47:00,
2013-04-10 11:52:00,33.8,14.7,30.47,NE,45,2.0,5.0,45,0.08,,,0.14,meteohub,2013-04-10 17:52:00,
2013-04-10 11:57:00,33.6,15.1,30.47,NE,45,1.0,5.0,46,0.09,,,0.15,meteohub,2013-04-10 17:57:00,
2013-04-10 12:03:00,33.8,14.7,30.47,NE,45,2.0,5.0,45,0.09,,,0.17,meteohub,2013-04-10 18:03:00,
2013-04-10 12:08:00,34.3,16.2,30.47,SSW,203,4.0,4.0,47,0.09,,,0.17,meteohub,2013-04-10 18:08:00,
2013-04-10 12:13:00,34.9,15.6,30.47,South,180,4.0,4.0,45,0.09,,,0.18,meteohub,2013-04-10 18:13:00,
2013-04-10 12:18:00,34.9,15.6,30.46,SW,225,4.0,4.0,45,0.09,,,0.18,meteohub,2013-04-10 18:18:00,
2013-04-10 12:23:00,35.4,17.2,30.46,East,90,2.0,4.0,47,0.08,,,0.18,meteohub,2013-04-10 18:23:00,
2013-04-10 12:29:00,36.1,19.2,30.46,North,0,4.0,4.0,50,0.07,,,0.18,meteohub,2013-04-10 18:29:00,
2013-04-10 12:34:00,37.0,20.1,30.45,ENE,68,3.0,4.0,50,0.07,,,0.18,meteohub,2013-04-10 18:34:00,
2013-04-10 12:39:00,37.0,20.1,30.45,East,90,4.0,4.0,50,0.06,,,0.18,meteohub,2013-04-10 18:39:00,
2013-04-10 12:45:00,36.5,18.1,30.45,NE,45,4.0,5.0,47,0.06,,,0.18,meteohub,2013-04-10 18:45:00,
2013-04-10 12:50:00,35.6,17.8,30.45,NE,45,5.0,5.0,48,0.04,,,0.18,meteohub,2013-04-10 18:50:00,
2013-04-10 12:55:00,35.4,18.1,30.44,North,0,3.0,5.0,49,0.02,,,0.18,meteohub,2013-04-10 18:55:00,
2013-04-10 13:01:00,36.3,20.8,30.44,SW,225,4.0,5.0,53,0.01,,,0.18,meteohub,2013-04-10 19:01:00,
2013-04-10 13:06:00,37.0,21.0,30.44,SW,225,2.0,5.0,52,0.01,,,0.18,meteohub,2013-04-10 19:06:00,
2013-04-10 13:11:00,37.2,18.3,30.44,SW,225,2.0,4.0,46,0.00,,,0.18,meteohub,2013-04-10 19:11:00,
2013-04-10 13:16:00,37.6,21.9,30.44,SW,225,2.0,4.0,53,0.00,,,0.18,meteohub,2013-04-10 19:16:00,
2013-04-10 13:21:00,38.3,23.5,30.43,South,180,3.0,4.0,55,0.00,,,0.18,meteohub,2013-04-10 19:21:00,
2013-04-10 13:27:00,38.8,23.2,30.43,East,90,4.0,4.0,53,0.00,,,0.18,meteohub,2013-04-10 19:27:00,
2013-04-10 13:32:00,38.5,21.9,30.43,South,180,2.0,4.0,51,0.00,,,0.18,meteohub,2013-04-10 19:32:00,
2013-04-10 13:37:00,39.0,23.4,30.43,SW,225,3.0,4.0,53,0.00,,,0.18,meteohub,2013-04-10 19:37:00,
2013-04-10 13:42:00,39.7,22.6,30.43,SW,225,2.0,4.0,50,0.00,,,0.18,meteohub,2013-04-10 19:42:00,
2013-04-10 13:48:00,40.6,23.0,30.42,SW,225,3.0,4.0,49,0.00,,,0.18,meteohub,2013-04-10 19:48:00,
2013-04-10 13:53:00,40.6,22.5,30.42,SE,135,2.0,4.0,48,0.00,,,0.18,meteohub,2013-04-10 19:53:00,
2013-04-10 13:58:00,40.6,21.6,30.42,SW,225,3.0,4.0,46,0.00,,,0.18,meteohub,2013-04-10 19:58:00,
2013-04-10 14:04:00,40.8,22.6,30.41,SE,135,2.0,4.0,48,0.00,,,0.18,meteohub,2013-04-10 20:04:00,
2013-04-10 14:09:00,40.6,21.9,30.41,NE,45,2.0,4.0,47,0.00,,,0.18,meteohub,2013-04-10 20:09:00,
2013-04-10 14:14:00,41.0,23.4,30.41,East,90,3.0,4.0,49,0.00,,,0.18,meteohub,2013-04-10 20:14:00,
2013-04-10 14:19:00,41.2,23.9,30.40,North,0,3.0,3.0,50,0.00,,,0.18,meteohub,2013-04-10 20:19:00,
2013-04-10 14:24:00,40.6,22.5,30.40,SW,225,2.0,4.0,48,0.00,,,0.18,meteohub,2013-04-10 20:24:00,
2013-04-10 14:29:00,41.4,23.2,30.40,NE,45,3.0,4.0,48,0.00,,,0.18,meteohub,2013-04-10 20:29:00,
2013-04-10 14:35:00,41.7,24.4,30.40,SW,225,2.0,4.0,50,0.00,,,0.18,meteohub,2013-04-10 20:35:00,
2013-04-10 14:40:00,43.0,25.7,30.40,South,180,4.0,4.0,50,0.00,,,0.18,meteohub,2013-04-10 20:40:00,
2013-04-10 14:45:00,43.5,24.1,30.39,SE,135,4.0,4.0,46,0.00,,,0.18,meteohub,2013-04-10 20:45:00,
2013-04-10 14:50:00,43.3,22.8,30.39,South,180,2.0,4.0,44,0.00,,,0.18,meteohub,2013-04-10 20:50:00,
2013-04-10 14:55:00,43.9,25.0,30.39,NE,45,4.0,4.0,47,0.00,,,0.18,meteohub,2013-04-10 20:55:00,
2013-04-10 15:00:00,44.4,28.4,30.39,SE,135,2.0,4.0,53,0.00,,,0.18,meteohub,2013-04-10 21:00:00,
2013-04-10 15:05:00,45.1,26.6,30.38,NE,45,3.0,4.0,48,0.00,,,0.18,meteohub,2013-04-10 21:05:00,
2013-04-10 15:10:00,45.3,28.8,30.38,West,270,3.0,4.0,52,0.00,,,0.18,meteohub,2013-04-10 21:10:00,
2013-04-10 15:16:00,45.7,25.5,30.38,North,0,5.0,5.0,45,0.00,,,0.18,meteohub,2013-04-10 21:16:00,
2013-04-10 15:21:00,45.0,24.4,30.38,SW,225,2.0,5.0,44,0.00,,,0.18,meteohub,2013-04-10 21:21:00,
2013-04-10 15:26:00,45.0,24.4,30.38,NW,315,4.0,5.0,44,0.00,,,0.18,meteohub,2013-04-10 21:26:00,
2013-04-10 15:31:00,44.8,25.7,30.37,East,90,5.0,5.0,47,0.00,,,0.18,meteohub,2013-04-10 21:31:00,
2013-04-10 15:36:00,44.6,26.1,30.37,NE,45,5.0,5.0,48,0.00,,,0.18,meteohub,2013-04-10 21:36:00,
2013-04-10 15:42:00,44.2,24.8,30.37,NE,45,12.0,12.0,46,0.00,,,0.18,meteohub,2013-04-10 21:42:00,
2013-04-10 15:47:00,43.3,22.8,30.36,NW,315,4.0,12.0,44,0.00,,,0.18,meteohub,2013-04-10 21:47:00,
2013-04-10 15:52:00,43.7,24.3,30.36,West,270,3.0,12.0,46,0.00,,,0.18,meteohub,2013-04-10 21:52:00,
2013-04-10 15:57:00,45.0,24.4,30.36,NE,45,6.0,12.0,44,0.00,,,0.18,meteohub,2013-04-10 21:57:00,
2013-04-10 16:03:00,44.4,22.8,30.36,NE,45,9.0,14.0,42,0.00,,,0.18,meteohub,2013-04-10 22:03:00,
2013-04-10 16:08:00,41.9,21.0,30.37,NW,315,10.0,14.0,43,0.00,,,0.18,meteohub,2013-04-10 22:08:00,
2013-04-10 16:13:00,41.2,20.3,30.37,NE,45,7.0,14.0,43,0.00,,,0.18,meteohub,2013-04-10 22:13:00,
2013-04-10 16:18:00,40.6,20.5,30.36,SW,225,7.0,10.0,44,0.00,,,0.18,meteohub,2013-04-10 22:18:00,
2013-04-10 16:24:00,39.9,20.3,30.36,WNW,293,5.0,11.0,45,0.00,,,0.18,meteohub,2013-04-10 22:24:00,
2013-04-10 16:29:00,40.1,21.0,30.36,South,180,8.0,11.0,46,0.00,,,0.18,meteohub,2013-04-10 22:29:00,
2013-04-10 16:34:00,40.3,21.7,30.37,SW,225,6.0,11.0,47,0.00,,,0.18,meteohub,2013-04-10 22:34:00,
2013-04-10 16:39:00,39.2,20.7,30.37,NW,315,6.0,8.0,47,0.00,,,0.18,meteohub,2013-04-10 22:39:00,
2013-04-10 16:44:00,38.3,21.2,30.37,SW,225,2.0,11.0,50,0.00,,,0.18,meteohub,2013-04-10 22:44:00,
2013-04-10 16:49:00,38.1,22.1,30.37,SW,225,6.0,11.0,52,0.00,,,0.18,meteohub,2013-04-10 22:49:00,
2013-04-10 16:55:00,37.8,21.7,30.37,SE,135,2.0,11.0,52,0.00,,,0.18,meteohub,2013-04-10 22:55:00,
2013-04-10 17:00:00,37.8,21.7,30.37,SW,225,5.0,13.0,52,0.00,,,0.18,meteohub,2013-04-10 23:00:00,
2013-04-10 17:05:00,37.8,20.8,30.37,West,270,2.0,13.0,50,0.00,,,0.18,meteohub,2013-04-10 23:05:00,
2013-04-10 17:10:00,37.2,18.3,30.38,SW,225,4.0,11.0,46,0.00,,,0.18,meteohub,2013-04-10 23:10:00,
2013-04-10 17:15:00,36.9,19.0,30.38,SW,225,4.0,11.0,48,0.00,,,0.18,meteohub,2013-04-10 23:15:00,
2013-04-10 17:20:00,36.7,18.3,30.38,SW,225,5.0,11.0,47,0.00,,,0.18,meteohub,2013-04-10 23:20:00,
2013-04-10 17:25:00,36.3,17.6,30.39,NW,315,11.0,11.0,46,0.00,,,0.18,meteohub,2013-04-10 23:25:00,
2013-04-10 17:31:00,35.6,18.3,30.39,SW,225,16.0,17.0,49,0.00,,,0.18,meteohub,2013-04-10 23:31:00,
2013-04-10 17:36:00,34.5,18.7,30.39,SW,225,13.0,17.0,52,0.00,,,0.18,meteohub,2013-04-10 23:36:00,
2013-04-10 17:41:00,33.8,18.9,30.40,SW,225,12.0,17.0,54,0.00,,,0.18,meteohub,2013-04-10 23:41:00,
2013-04-10 17:46:00,33.1,19.6,30.40,SW,225,10.0,16.0,57,0.00,,,0.18,meteohub,2013-04-10 23:46:00,
2013-04-10 17:51:00,32.5,20.1,30.40,SW,225,15.0,16.0,60,0.00,,,0.18,meteohub,2013-04-10 23:51:00,
2013-04-10 17:57:00,32.0,20.1,30.40,South,180,15.0,15.0,61,0.00,,,0.18,meteohub,2013-04-10 23:57:00,
2013-04-10 18:02:00,31.6,20.8,30.40,SW,225,17.0,17.0,64,0.00,,,0.18,meteohub,2013-04-11 00:02:00,
2013-04-10 18:07:00,31.6,20.8,30.41,SW,225,17.0,17.0,64,0.00,,,0.18,meteohub,2013-04-11 00:07:00,
2013-04-10 18:12:00,30.9,20.8,30.41,South,180,14.0,17.0,66,0.00,,,0.18,meteohub,2013-04-11 00:12:00,
2013-04-10 18:17:00,30.6,20.1,30.41,SSE,158,11.0,17.0,65,0.00,,,0.18,meteohub,2013-04-11 00:17:00,
2013-04-10 18:23:00,30.2,19.9,30.41,SW,225,9.0,17.0,65,0.00,,,0.18,meteohub,2013-04-11 00:23:00,
2013-04-10 18:28:00,29.8,20.3,30.41,SSW,203,10.0,16.0,67,0.00,,,0.18,meteohub,2013-04-11 00:28:00,
2013-04-10 18:33:00,29.7,20.1,30.42,SW,225,8.0,16.0,67,0.00,,,0.18,meteohub,2013-04-11 00:33:00,
2013-04-10 18:38:00,29.5,19.9,30.42,SW,225,11.0,16.0,67,0.00,,,0.18,meteohub,2013-04-11 00:38:00,
2013-04-10 18:43:00,29.3,20.1,30.42,SW,225,7.0,13.0,68,0.00,,,0.18,meteohub,2013-04-11 00:43:00,
2013-04-10 18:49:00,29.1,19.6,30.41,SW,225,6.0,11.0,67,0.00,,,0.18,meteohub,2013-04-11 00:49:00,
2013-04-10 18:54:00,28.8,19.2,30.42,West,270,6.0,11.0,67,0.00,,,0.18,meteohub,2013-04-11 00:54:00,
2013-04-10 18:59:00,28.6,19.0,30.42,SW,225,4.0,11.0,67,0.00,,,0.18,meteohub,2013-04-11 00:59:00,
2013-04-10 19:04:00,28.6,19.0,30.42,SW,225,6.0,11.0,67,0.00,,,0.18,meteohub,2013-04-11 01:04:00,
2013-04-10 19:09:00,28.4,18.9,30.43,South,180,7.0,9.0,67,0.00,,,0.18,meteohub,2013-04-11 01:09:00,
2013-04-10 19:15:00,28.2,17.2,30.43,West,270,4.0,9.0,63,0.00,,,0.18,meteohub,2013-04-11 01:15:00,
2013-04-10 19:20:00,28.0,17.1,30.43,SW,225,6.0,9.0,63,0.00,,,0.18,meteohub,2013-04-11 01:20:00,
2013-04-10 19:25:00,28.0,17.1,30.44,South,180,4.0,8.0,63,0.00,,,0.18,meteohub,2013-04-11 01:25:00,
2013-04-10 19:30:00,28.0,17.1,30.44,West,270,4.0,8.0,63,0.00,,,0.18,meteohub,2013-04-11 01:30:00,
2013-04-10 19:35:00,27.9,16.5,30.44,West,270,3.0,6.0,62,0.00,,,0.18,meteohub,2013-04-11 01:35:00,
2013-04-10 19:40:00,27.9,16.5,30.44,West,270,6.0,8.0,62,0.00,,,0.18,meteohub,2013-04-11 01:40:00,
2013-04-10 19:46:00,27.7,16.3,30.44,West,270,4.0,8.0,62,0.00,,,0.18,meteohub,2013-04-11 01:46:00,
2013-04-10 19:51:00,27.7,16.3,30.44,SW,225,3.0,8.0,62,0.00,,,0.18,meteohub,2013-04-11 01:51:00,
2013-04-10 19:56:00,27.5,16.2,30.45,NW,315,2.0,7.0,62,0.00,,,0.18,meteohub,2013-04-11 01:56:00,
2013-04-10 20:01:00,27.3,16.0,30.45,SW,225,2.0,7.0,62,0.00,,,0.18,meteohub,2013-04-11 02:01:00,
2013-04-10 20:07:00,27.3,16.0,30.45,SW,225,2.0,5.0,62,0.00,,,0.18,meteohub,2013-04-11 02:07:00,
2013-04-10 20:12:00,27.3,16.3,30.45,West,270,5.0,5.0,63,0.00,,,0.18,meteohub,2013-04-11 02:12:00,
2013-04-10 20:17:00,27.1,16.2,30.45,West,270,2.0,5.0,63,0.00,,,0.18,meteohub,2013-04-11 02:17:00,
2013-04-10 20:22:00,27.0,15.6,30.45,South,180,2.0,5.0,62,0.00,,,0.18,meteohub,2013-04-11 02:22:00,
2013-04-10 20:27:00,27.0,15.6,30.45,SW,225,2.0,5.0,62,0.00,,,0.18,meteohub,2013-04-11 02:27:00,
2013-04-10 20:32:00,26.8,15.8,30.46,South,180,3.0,4.0,63,0.00,,,0.18,meteohub,2013-04-11 02:32:00,
2013-04-10 20:37:00,26.8,15.8,30.46,West,270,2.0,4.0,63,0.00,,,0.18,meteohub,2013-04-11 02:37:00,
2013-04-10 20:43:00,26.6,15.6,30.46,SW,225,2.0,4.0,63,0.00,,,0.18,meteohub,2013-04-11 02:43:00,
2013-04-10 20:48:00,26.6,15.6,30.46,SW,225,3.0,4.0,63,0.00,,,0.18,meteohub,2013-04-11 02:48:00,
2013-04-10 20:53:00,26.6,15.6,30.46,West,270,2.0,4.0,63,0.00,,,0.18,meteohub,2013-04-11 02:53:00,
2013-04-10 20:58:00,26.4,16.0,30.46,South,180,2.0,4.0,64,0.00,,,0.18,meteohub,2013-04-11 02:58:00,
2013-04-10 21:03:00,26.4,16.0,30.47,South,180,4.0,4.0,64,0.00,,,0.18,meteohub,2013-04-11 03:03:00,
2013-04-10 21:09:00,26.2,15.8,30.47,SW,225,3.0,4.0,64,0.00,,,0.18,meteohub,2013-04-11 03:09:00,
2013-04-10 21:14:00,26.2,15.8,30.47,SW,225,4.0,4.0,64,0.00,,,0.18,meteohub,2013-04-11 03:14:00,
2013-04-10 21:19:00,26.2,15.8,30.47,SW,225,3.0,4.0,64,0.00,,,0.18,meteohub,2013-04-11 03:19:00,
2013-04-10 21:25:00,26.2,16.2,30.47,South,180,3.0,4.0,65,0.00,,,0.18,meteohub,2013-04-11 03:25:00,
2013-04-10 21:30:00,26.2,16.2,30.47,SW,225,2.0,4.0,65,0.00,,,0.18,meteohub,2013-04-11 03:30:00,
2013-04-10 21:35:00,26.1,16.0,30.47,SW,225,3.0,4.0,65,0.00,,,0.18,meteohub,2013-04-11 03:35:00,
2013-04-10 21:40:00,25.5,15.8,30.48,SW,225,2.0,4.0,66,0.00,,,0.18,meteohub,2013-04-11 03:40:00,
2013-04-10 21:46:00,25.2,15.8,30.47,SW,225,3.0,3.0,67,0.00,,,0.18,meteohub,2013-04-11 03:46:00,
2013-04-10 21:51:00,24.8,15.4,30.47,SW,225,2.0,3.0,67,0.00,,,0.18,meteohub,2013-04-11 03:51:00,
2013-04-10 21:56:00,24.6,16.0,30.48,SW,225,2.0,3.0,69,0.00,,,0.18,meteohub,2013-04-11 03:56:00,
2013-04-10 22:00:00,24.4,15.8,30.48,SW,225,2.0,3.0,69,0.00,,,0.18,meteohub,2013-04-11 04:00:00,
2013-04-10 22:02:00,24.4,15.8,30.48,SW,225,2.0,3.0,69,0.00,,,0.18,meteohub,2013-04-11 04:02:00,
2013-04-10 22:06:00,24.4,15.8,30.48,SW,225,2.0,2.0,69,0.00,,,0.18,meteohub,2013-04-11 04:06:00,
2013-04-10 22:11:00,24.1,15.8,30.48,SW,225,2.0,2.0,70,0.00,,,0.18,meteohub,2013-04-11 04:11:00,
2013-04-10 22:15:00,24.1,15.8,30.47,South,180,2.0,2.0,70,0.00,,,0.18,meteohub,2013-04-11 04:15:00,
2013-04-10 22:20:00,23.9,15.8,30.47,SW,225,4.0,4.0,71,0.00,,,0.18,meteohub,2013-04-11 04:20:00,
2013-04-10 22:25:00,23.7,16.0,30.47,SW,225,3.0,4.0,72,0.00,,,0.18,meteohub,2013-04-11 04:25:00,
2013-04-10 22:31:00,23.7,16.0,30.47,SW,225,2.0,4.0,72,0.00,,,0.18,meteohub,2013-04-11 04:31:00,
2013-04-10 22:36:00,23.5,15.8,30.47,SW,225,2.0,4.0,72,0.00,,,0.18,meteohub,2013-04-11 04:36:00,
2013-04-10 22:41:00,23.4,15.6,30.47,SW,225,2.0,4.0,72,0.00,,,0.18,meteohub,2013-04-11 04:41:00,
2013-04-10 22:46:00,23.2,15.3,30.47,SW,225,2.0,2.0,71,0.00,,,0.18,meteohub,2013-04-11 04:46:00,
2013-04-10 22:51:00,23.0,15.3,30.46,SW,225,1.0,2.0,72,0.00,,,0.18,meteohub,2013-04-11 04:51:00,
2013-04-10 22:57:00,22.8,15.4,30.46,SW,225,1.0,2.0,73,0.00,,,0.18,meteohub,2013-04-11 04:57:00,
2013-04-10 23:02:00,22.6,15.6,30.47,South,180,2.0,2.0,74,0.00,,,0.18,meteohub,2013-04-11 05:02:00,
2013-04-10 23:07:00,22.5,15.4,30.47,SW,225,1.0,2.0,74,0.00,,,0.18,meteohub,2013-04-11 05:07:00,
2013-04-10 23:12:00,22.1,15.1,30.46,SW,225,2.0,2.0,74,0.00,,,0.18,meteohub,2013-04-11 05:12:00,
2013-04-10 23:17:00,21.9,14.9,30.46,SW,225,2.0,2.0,74,0.00,,,0.18,meteohub,2013-04-11 05:17:00,
2013-04-10 23:22:00,21.6,14.9,30.46,SW,225,2.0,2.0,75,0.00,,,0.18,meteohub,2013-04-11 05:22:00,
2013-04-10 23:28:00,21.4,15.1,30.45,SW,225,2.0,2.0,76,0.00,,,0.18,meteohub,2013-04-11 05:28:00,
2013-04-10 23:33:00,21.2,14.9,30.45,South,180,2.0,2.0,76,0.00,,,0.18,meteohub,2013-04-11 05:33:00,
2013-04-10 23:38:00,21.2,14.9,30.45,West,270,2.0,2.0,76,0.00,,,0.18,meteohub,2013-04-11 05:38:00,
2013-04-10 23:43:00,21.4,15.1,30.45,South,180,2.0,2.0,76,0.00,,,0.18,meteohub,2013-04-11 05:43:00,
2013-04-10 23:48:00,21.4,15.1,30.45,West,270,3.0,3.0,76,0.00,,,0.18,meteohub,2013-04-11 05:48:00,
2013-04-10 23:54:00,21.4,15.1,30.45,SW,225,2.0,2.0,76,0.00,,,0.18,meteohub,2013-04-11 05:54:00,